GW3577 Weather Reports


Display with metric or nautical units.
time (UTC)temp
F
wind
direction
speed
MPH
gust
MPH
rain 1hr
in
rain 24hr
in
rain mn
in
humidity
%
barometer
mb
20260905042323 71 289 0.0 0.0 0.00 0.00 0.00 94 1016.5
20260905041818 71 289 0.0 0.0 0.00 0.00 0.00 94 1016.8
20260905041314 71 289 0.0 0.0 0.00 0.00 0.00 94 1016.5
20260905040809 71 289 0.0 0.0 0.00 0.00 0.00 93 1016.5
20260905040307 71 289 0.0 0.0 0.00 0.00 0.00 93 1016.8
20260905035802 71 289 0.0 0.0 0.00 0.00 0.00 93 1016.5
20260905035258 71 289 0.0 0.0 0.00 0.00 0.00 93 1016.8
20260905034755 71 289 0.0 0.0 0.00 0.00 0.00 93 1016.8
20260905034255 71 289 0.0 0.0 0.00 0.00 0.00 93 1016.8
20260905033753 71 289 0.0 0.0 0.00 0.00 0.00 93 1016.5
20260905033249 71 289 0.0 0.0 0.00 0.00 0.00 93 1016.5
20260905032748 71 289 0.0 0.0 0.00 0.00 0.00 93 1016.5
20260905032244 71 289 0.0 1.0 0.00 0.00 0.00 94 1016.5
20260905031738 71 113 0.0 0.0 0.00 0.00 0.00 94 1016.5
20260905031235 71 113 0.0 0.0 0.00 0.00 0.00 94 1016.5
20260905030734 71 113 0.0 0.0 0.00 0.00 0.00 94 1016.5
20260905030230 71 113 0.0 0.0 0.00 0.00 0.00 93 1016.8
20260905025724 71 327 0.0 0.0 0.00 0.00 0.00 93 1016.5
20260905025220 71 327 0.0 0.0 0.00 0.00 0.00 93 1016.5
20260905024715 71 327 0.0 0.0 0.00 0.00 0.00 92 1016.5
20260905024211 70 327 0.0 0.0 0.00 0.00 0.00 92 1016.5
20260905023707 71 327 0.0 0.0 0.00 0.00 0.00 92 1016.1
20260905023207 71 327 0.0 0.0 0.00 0.00 0.00 91 1016.1
20260905022705 71 327 0.0 0.0 0.00 0.00 0.00 90 1016.1
20260905022201 71 321 0.0 4.0 0.00 0.00 0.00 89 1016.1
20260905021655 71 198 0.0 0.0 0.00 0.00 0.00 89 1016.1
20260905021150 72 198 0.0 0.0 0.00 0.00 0.00 89 1015.8
20260905020645 72 198 0.0 0.0 0.00 0.00 0.00 88 1015.8
20260905020140 73 198 0.0 0.0 0.00 0.00 0.00 90 1015.4
20260905015639 73 198 0.0 0.0 0.00 0.00 0.00 90 1015.4
20260905015133 73 198 0.0 0.0 0.00 0.00 0.00 90 1015.4
20260905014627 73 198 0.0 0.0 0.00 0.00 0.00 91 1015.4
20260905014123 72 198 0.0 0.0 0.00 0.00 0.00 91 1015.0
20260905013620 72 198 0.0 0.0 0.00 0.00 0.00 91 1015.0
20260905013115 73 198 0.0 0.0 0.00 0.00 0.00 90 1015.0
20260905012614 73 198 0.0 0.0 0.00 0.00 0.00 90 1015.0
20260905012111 73 198 0.0 0.0 0.00 0.00 0.00 90 1014.7
20260905011607 73 198 0.0 0.0 0.00 0.00 0.00 89 1014.7
20260905011103 73 198 0.0 0.0 0.00 0.00 0.00 88 1014.7
20260905010601 73 198 0.0 0.0 0.00 0.00 0.00 87 1014.7
20260905010058 73 198 0.0 0.0 0.00 0.00 0.00 87 1014.7
20260905005553 73 198 0.0 0.0 0.00 0.00 0.00 88 1014.7
20260905005049 74 198 1.0 2.0 0.00 0.00 0.00 87 1014.7
20260905004543 74 198 1.0 2.0 0.00 0.00 0.00 86 1014.3
20260905004038 74 198 0.0 0.0 0.00 0.00 0.00 84 1014.3
20260905003535 74 198 0.0 0.0 0.00 0.00 0.00 84 1014.3
20260905003031 74 198 0.0 0.0 0.00 0.00 0.00 85 1014.3
20260905002526 75 198 0.0 0.0 0.00 0.00 0.00 83 1014.3
20260905002025 75 198 0.0 0.0 0.00 0.00 0.00 83 1014.7
20260905001520 76 198 0.0 0.0 0.00 0.00 0.00 83 1014.7
20260905001014 77 198 0.0 0.0 0.00 0.00 0.00 81 1014.7
20260905000510 77 198 0.0 0.0 0.00 0.00 0.00 80 1014.7
20260905000005 77 198 0.0 0.0 0.00 0.00 0.00 81 1014.7
20260904235500 77 198 0.0 0.0 0.00 0.00 0.00 81 1014.7
20260904234955 78 198 0.0 0.0 0.00 0.00 0.00 78 1015.0
20260904234454 77 198 0.0 0.0 0.00 0.00 0.00 78 1015.0
20260904233951 78 198 0.0 0.0 0.00 0.00 0.00 77 1015.4
20260904233446 78 198 1.0 2.0 0.00 0.00 0.00 77 1015.4
20260904232942 78 242 4.0 6.0 0.00 0.00 0.00 76 1016.1
20260904232438 79 141 0.0 0.0 0.00 0.00 0.00 77 1015.4
20260904231935 80 141 0.0 0.0 0.00 0.00 0.00 75 1015.4
20260904231429 80 141 0.0 0.0 0.00 0.00 0.00 70 1014.3
20260904230924 80 141 2.0 3.0 0.00 0.00 0.00 66 1014.3
20260904230423 81 294 0.0 0.0 0.00 0.00 0.00 64 1014.3
20260904225918 82 294 0.0 0.0 0.00 0.00 0.00 63 1014.7
20260904225417 83 122 0.0 0.0 0.00 0.00 0.00 56 1014.7
20260904224911 84 78 2.0 5.0 0.00 0.00 0.00 54 1015.0
20260904224407 84 69 0.0 2.0 0.00 0.00 0.00 54 1015.4
20260904223906 84 69 1.0 3.0 0.00 0.00 0.00 54 1015.4
20260904223406 84 49 3.0 8.0 0.00 0.00 0.00 54 1015.4
20260904222902 84 53 0.0 3.0 0.00 0.00 0.00 53 1015.0
20260904222402 86 82 6.0 10.0 0.00 0.00 0.00 48 1014.7
20260904221902 87 30 3.0 8.0 0.00 0.00 0.00 46 1015.0
20260904221357 89 18 6.0 11.0 0.00 0.00 0.00 46 1015.4
20260904220852 90 24 6.0 10.0 0.00 0.00 0.00 45 1015.0
20260904220351 91 9 9.0 13.0 0.00 0.00 0.00 46 1015.0
20260904215847 91 338 7.0 12.0 0.00 0.00 0.00 52 1014.7
20260904215342 91 158 1.0 2.0 0.00 0.00 0.00 51 1014.3
20260904214838 91 158 1.0 2.0 0.00 0.00 0.00 50 1014.3
20260904214333 91 158 1.0 2.0 0.00 0.00 0.00 51 1014.0
20260904213832 91 158 0.0 2.0 0.00 0.00 0.00 51 1014.0
20260904213327 91 158 4.0 4.0 0.00 0.00 0.00 51 1014.0
20260904212823 91 205 0.0 2.0 0.00 0.00 0.00 50 1013.7
20260904212323 91 135 3.0 4.0 0.00 0.00 0.00 50 1013.7
20260904211818 92 110 4.0 5.0 0.00 0.00 0.00 49 1013.7
20260904211313 94 107 5.0 7.0 0.00 0.00 0.00 48 1013.7
20260904210803 94 224 0.0 0.0 0.00 0.00 0.00 48 1013.7
20260904210302 95 224 2.0 4.0 0.00 0.00 0.00 48 1013.7
20260904205758 95 238 0.0 3.0 0.00 0.00 0.00 49 1013.7
20260904205254 96 243 2.0 6.0 0.00 0.00 0.00 49 1013.3
20260904204751 96 234 0.0 2.0 0.00 0.00 0.00 48 1013.3
20260904204247 96 280 3.0 4.0 0.00 0.00 0.00 48 1013.3
20260904203742 94 225 5.0 7.0 0.00 0.00 0.00 50 1013.0
20260904203238 93 249 7.0 9.0 0.00 0.00 0.00 50 1013.3
20260904202734 92 248 11.0 13.0 0.00 0.00 0.00 51 1013.3
20260904202230 91 243 10.0 13.0 0.00 0.00 0.00 53 1013.7
20260904201725 91 228 10.0 13.0 0.00 0.00 0.00 52 1013.7
20260904201225 91 227 9.0 14.0 0.00 0.00 0.00 52 1014.0
20260904200720 91 241 12.0 17.0 0.00 0.00 0.00 52 1014.0
20260904200209 93 248 9.0 12.0 0.00 0.00 0.00 50 1014.0
20260904195708 93 262 6.0 8.0 0.00 0.00 0.00 49 1014.0
20260904195207 93 278 5.0 7.0 0.00 0.00 0.00 48 1014.0
20260904194702 94 269 4.0 6.0 0.00 0.00 0.00 48 1013.7
20260904194201 94 247 6.0 8.0 0.00 0.00 0.00 48 1013.7
20260904193657 94 248 6.0 8.0 0.00 0.00 0.00 47 1013.7
20260904193153 95 252 7.0 8.0 0.00 0.00 0.00 45 1013.7
20260904192653 95 258 5.0 6.0 0.00 0.00 0.00 43 1013.3
20260904192143 97 294 3.0 6.0 0.00 0.00 0.00 43 1013.7
20260904191640 97 243 6.0 10.0 0.00 0.00 0.00 43 1013.7
20260904191135 99 254 4.0 9.0 0.00 0.00 0.00 41 1013.7
20260904190631 101 275 7.0 10.0 0.00 0.00 0.00 40 1013.0
20260904190127 99 252 8.0 11.0 0.00 0.00 0.00 41 1013.0
20260904185623 99 258 10.0 13.0 0.00 0.00 0.00 40 1013.0
20260904185118 99 213 8.0 11.0 0.00 0.00 0.00 40 1013.0
20260904184616 101 214 6.0 10.0 0.00 0.00 0.00 40 1013.0
20260904184112 101 352 1.0 4.0 0.00 0.00 0.00 39 1013.0
20260904183608 103 294 5.0 12.0 0.00 0.00 0.00 39 1013.3
20260904183102 104 312 8.0 15.0 0.00 0.00 0.00 37 1013.3
20260904182558 103 320 6.0 9.0 0.00 0.00 0.00 38 1013.3
20260904182058 102 300 4.0 10.0 0.00 0.00 0.00 38 1013.7
20260904181555 102 333 8.0 11.0 0.00 0.00 0.00 39 1013.7
20260904181054 99 210 0.0 2.0 0.00 0.00 0.00 41 1013.7
20260904180554 99 247 6.0 9.0 0.00 0.00 0.00 44 1014.0
20260904180049 100 217 4.0 7.0 0.00 0.00 0.00 43 1014.0
20260904175543 99 182 0.0 0.0 0.00 0.00 0.00 42 1014.0
20260904175042 101 325 0.0 0.0 0.00 0.00 0.00 40 1014.3
20260904174537 101 325 0.0 0.0 0.00 0.00 0.00 41 1014.3
20260904174034 99 325 0.0 0.0 0.00 0.00 0.00 45 1014.7
20260904173534 98 325 0.0 0.0 0.00 0.00 0.00 44 1015.0
20260904173029 100 12 2.0 4.0 0.00 0.00 0.00 42 1014.7
20260904172525 100 290 0.0 0.0 0.00 0.00 0.00 42 1015.0
20260904172024 100 2 1.0 3.0 0.00 0.00 0.00 42 1014.7
20260904171519 102 334 0.0 0.0 0.00 0.00 0.00 39 1014.3
20260904171015 102 30 1.0 4.0 0.00 0.00 0.00 39 1014.3
20260904170510 101 303 5.0 7.0 0.00 0.00 0.00 43 1014.3
20260904170006 102 234 4.0 6.0 0.00 0.00 0.00 40 1014.3
20260904165500 103 319 5.0 9.0 0.00 0.00 0.00 40 1014.7
20260904164959 102 338 5.0 12.0 0.00 0.00 0.00 41 1014.7
20260904164454 101 347 8.0 11.0 0.00 0.00 0.00 41 1015.0
20260904163950 101 271 5.0 7.0 0.00 0.00 0.00 42 1015.0
20260904163444 101 336 4.0 6.0 0.00 0.00 0.00 41 1015.0
20260904162943 101 297 8.0 12.0 0.00 0.00 0.00 42 1015.0
20260904162439 100 258 3.0 4.0 0.00 0.00 0.00 43 1015.0
20260904161928 100 318 7.0 11.0 0.00 0.00 0.00 43 1015.0
20260904161423 100 18 5.0 8.0 0.00 0.00 0.00 42 1015.4
20260904160919 100 330 6.0 11.0 0.00 0.00 0.00 42 1015.4
20260904160414 100 332 3.0 6.0 0.00 0.00 0.00 42 1015.4
20260904155909 100 329 6.0 12.0 0.00 0.00 0.00 43 1015.4
20260904155404 99 321 7.0 13.0 0.00 0.00 0.00 45 1015.4
20260904154903 99 313 6.0 9.0 0.00 0.00 0.00 44 1015.4
20260904154357 99 307 7.0 10.0 0.00 0.00 0.00 45 1015.8
20260904153853 98 324 7.0 10.0 0.00 0.00 0.00 45 1015.4
20260904153348 99 270 7.0 10.0 0.00 0.00 0.00 45 1015.8
20260904152844 99 279 5.0 7.0 0.00 0.00 0.00 44 1015.8
20260904152338 99 321 0.0 3.0 0.00 0.00 0.00 44 1015.4
20260904151833 99 338 1.0 4.0 0.00 0.00 0.00 45 1015.4
20260904151332 98 4 4.0 7.0 0.00 0.00 0.00 45 1015.4
20260904150829 97 9 6.0 10.0 0.00 0.00 0.00 45 1015.4
20260904150329 97 295 4.0 8.0 0.00 0.00 0.00 48 1015.4
20260904145826 98 300 3.0 11.0 0.00 0.00 0.00 46 1015.4
20260904145323 97 30 1.0 4.0 0.00 0.00 0.00 46 1015.8
20260904144819 97 338 2.0 6.0 0.00 0.00 0.00 46 1015.8
20260904144314 97 327 0.0 0.0 0.00 0.00 0.00 50 1015.8
20260904143809 95 327 0.0 0.0 0.00 0.00 0.00 52 1015.8
20260904143306 93 147 2.0 3.0 0.00 0.00 0.00 55 1015.8
20260904142802 92 147 3.0 5.0 0.00 0.00 0.00 55 1015.8
20260904142257 93 137 2.0 4.0 0.00 0.00 0.00 55 1015.8
20260904141752 93 123 0.0 0.0 0.00 0.00 0.00 57 1015.8
20260904141248 92 123 0.0 3.0 0.00 0.00 0.00 58 1015.8
20260904140743 91 123 0.0 0.0 0.00 0.00 0.00 59 1016.1
20260904140238 91 123 0.0 0.0 0.00 0.00 0.00 59 1016.1
20260904135736 90 123 0.0 0.0 0.00 0.00 0.00 61 1015.8
20260904135232 89 123 0.0 0.0 0.00 0.00 0.00 62 1016.1
20260904134728 89 123 3.0 6.0 0.00 0.00 0.00 64 1016.1
20260904134228 88 123 3.0 5.0 0.00 0.00 0.00 65 1016.1
20260904133722 87 123 1.0 2.0 0.00 0.00 0.00 67 1016.1
20260904133220 86 123 0.0 2.0 0.00 0.00 0.00 67 1016.5
20260904132718 87 123 0.0 0.0 0.00 0.00 0.00 68 1016.5
20260904132214 86 236 0.0 1.0 0.00 0.00 0.00 70 1016.5
20260904131712 85 236 3.0 5.0 0.00 0.00 0.00 72 1016.5
20260904131208 85 238 0.0 2.0 0.00 0.00 0.00 71 1016.5
20260904130703 85 238 0.0 0.0 0.00 0.00 0.00 71 1016.5
20260904130202 84 238 0.0 0.0 0.00 0.00 0.00 73 1016.5
20260904125659 83 238 0.0 0.0 0.00 0.00 0.00 74 1016.5
20260904125154 83 238 0.0 0.0 0.00 0.00 0.00 76 1016.5
20260904124649 82 238 0.0 0.0 0.00 0.00 0.00 78 1016.5
20260904124144 81 238 0.0 0.0 0.00 0.00 0.00 79 1016.5
20260904123638 80 238 0.0 0.0 0.00 0.00 0.00 80 1016.5
20260904123134 79 238 0.0 0.0 0.00 0.00 0.00 82 1016.5
20260904122629 78 238 0.0 0.0 0.00 0.00 0.00 84 1016.8
20260904122124 77 238 0.0 2.0 0.00 0.00 0.00 85 1016.8
20260904121619 77 238 0.0 0.0 0.00 0.00 0.00 88 1016.8
20260904121115 76 238 0.0 0.0 0.00 0.00 0.00 88 1016.8
20260904120611 76 238 0.0 0.0 0.00 0.00 0.00 89 1016.5
20260904120107 75 238 0.0 0.0 0.00 0.00 0.00 91 1016.8
20260904115602 75 238 0.0 0.0 0.00 0.00 0.00 91 1016.8
20260904115056 74 238 0.0 0.0 0.00 0.00 0.00 92 1016.8
20260904114551 74 238 0.0 0.0 0.00 0.00 0.00 92 1016.8
20260904114050 73 238 0.0 0.0 0.00 0.00 0.00 93 1016.8
20260904113544 73 238 0.0 0.0 0.00 0.00 0.00 94 1016.8
20260904113039 73 238 0.0 0.0 0.00 0.00 0.00 93 1016.8
20260904112534 72 7 0.0 0.0 0.00 0.00 0.00 94 1016.8
20260904112030 71 330 0.0 2.0 0.00 0.00 0.00 96 1016.8
20260904111525 71 302 1.0 3.0 0.00 0.00 0.00 97 1016.5
20260904111020 71 302 0.0 0.0 0.00 0.00 0.00 96 1016.5
20260904110515 71 302 0.0 0.0 0.00 0.00 0.00 96 1016.5
20260904110011 71 302 0.0 0.0 0.00 0.00 0.00 96 1016.5
20260904105510 71 302 0.0 1.0 0.00 0.00 0.00 96 1016.5
20260904105005 71 302 0.0 0.0 0.00 0.00 0.00 96 1016.5
20260904104500 71 302 0.0 0.0 0.00 0.00 0.00 96 1016.5
20260904103956 70 301 0.0 0.0 0.00 0.00 0.00 96 1016.5
20260904103451 70 336 0.0 0.0 0.00 0.00 0.00 96 1016.8
20260904102948 70 336 0.0 0.0 0.00 0.00 0.00 96 1016.5
20260904102443 71 336 0.0 0.0 0.00 0.00 0.00 95 1016.5
20260904101938 71 336 0.0 0.0 0.00 0.00 0.00 95 1016.5
20260904101435 71 297 0.0 0.0 0.00 0.00 0.00 95 1016.5
20260904100925 71 279 0.0 0.0 0.00 0.00 0.00 95 1016.5
20260904100420 71 279 0.0 0.0 0.00 0.00 0.00 96 1016.5
20260904095915 70 279 0.0 0.0 0.00 0.00 0.00 96 1016.5
20260904095410 70 252 0.0 4.0 0.00 0.00 0.00 96 1016.5
20260904094904 70 132 0.0 0.0 0.00 0.00 0.00 96 1016.5
20260904094400 71 132 0.0 0.0 0.00 0.00 0.00 96 1016.5
20260904093856 70 132 0.0 0.0 0.00 0.00 0.00 96 1016.5
20260904093355 71 132 2.0 3.0 0.00 0.00 0.00 96 1016.5
20260904092851 71 132 2.0 3.0 0.00 0.00 0.00 96 1016.5
20260904092348 70 330 0.0 0.0 0.00 0.00 0.00 96 1016.5
20260904091844 71 330 0.0 0.0 0.00 0.00 0.00 96 1016.5
20260904091339 71 330 0.0 0.0 0.00 0.00 0.00 95 1016.5
20260904090833 71 330 0.0 0.0 0.00 0.00 0.00 94 1016.5
20260904090330 72 330 0.0 0.0 0.00 0.00 0.00 94 1016.5
20260904085824 72 330 0.0 0.0 0.00 0.00 0.00 94 1016.5
20260904085320 72 330 0.0 0.0 0.00 0.00 0.00 94 1016.5
20260904084814 72 330 0.0 0.0 0.00 0.00 0.00 95 1016.5
20260904084310 71 330 0.0 0.0 0.00 0.00 0.00 94 1016.5
20260904083806 72 330 0.0 0.0 0.00 0.00 0.00 94 1016.5
20260904083303 71 330 0.0 0.0 0.00 0.00 0.00 95 1016.5
20260904082802 71 330 0.0 0.0 0.00 0.00 0.00 95 1016.1
20260904082257 72 330 0.0 0.0 0.00 0.00 0.00 94 1016.1
20260904081752 72 330 0.0 0.0 0.00 0.00 0.00 94 1016.1
20260904081248 72 330 0.0 0.0 0.00 0.00 0.00 94 1016.1
20260904080743 72 330 0.0 0.0 0.00 0.00 0.00 94 1016.1
20260904080239 72 330 0.0 0.0 0.00 0.00 0.00 93 1015.8
20260904075735 72 330 1.0 4.0 0.00 0.00 0.00 94 1015.8
20260904075230 72 330 0.0 0.0 0.00 0.00 0.00 94 1015.8
20260904074729 72 330 0.0 0.0 0.00 0.00 0.00 94 1015.8
20260904074224 72 330 0.0 0.0 0.00 0.00 0.00 94 1015.4
20260904073719 72 330 0.0 0.0 0.00 0.00 0.00 95 1015.4
20260904073210 71 330 0.0 0.0 0.00 0.00 0.00 95 1015.4
20260904072706 72 330 0.0 0.0 0.00 0.00 0.00 94 1015.4
20260904072206 72 330 0.0 0.0 0.00 0.00 0.00 94 1015.4
20260904071702 73 330 0.0 0.0 0.00 0.00 0.00 94 1015.4
20260904071156 72 330 0.0 0.0 0.00 0.00 0.00 94 1015.4
20260904070656 71 330 0.0 0.0 0.00 0.00 0.00 95 1015.4
20260904070155 71 330 0.0 0.0 0.00 0.00 0.00 95 1015.4
20260904065650 71 330 0.0 0.0 0.00 0.00 0.00 95 1015.4
20260904065148 72 330 0.0 0.0 0.00 0.00 0.00 95 1015.4
20260904064647 72 330 0.0 0.0 0.00 0.00 0.00 94 1015.4
20260904064143 72 330 0.0 0.0 0.00 0.00 0.00 94 1015.4
20260904063638 72 330 0.0 0.0 0.00 0.00 0.00 94 1015.4
20260904063134 72 330 0.0 0.0 0.00 0.00 0.00 94 1015.8
20260904062630 72 330 0.0 0.0 0.00 0.00 0.00 94 1015.8
20260904062126 72 330 0.0 0.0 0.00 0.00 0.00 94 1015.8
20260904061621 72 330 0.0 0.0 0.00 0.00 0.00 94 1016.1
20260904061117 73 330 0.0 0.0 0.00 0.00 0.00 94 1016.1
20260904060614 73 330 0.0 0.0 0.00 0.00 0.00 94 1016.1
20260904060109 72 330 0.0 0.0 0.00 0.00 0.00 95 1016.1
20260904055604 72 330 0.0 0.0 0.00 0.00 0.00 95 1016.1
20260904055059 72 330 0.0 0.0 0.00 0.00 0.00 94 1016.1
20260904054555 72 330 0.0 0.0 0.00 0.00 0.00 94 1016.5
20260904054051 73 330 0.0 0.0 0.00 0.00 0.00 93 1016.8
20260904053550 73 330 0.0 0.0 0.00 0.00 0.00 93 1016.8
20260904053046 73 330 0.0 0.0 0.00 0.00 0.00 92 1016.8
20260904052542 73 330 0.0 0.0 0.00 0.00 0.00 93 1016.8
20260904052038 73 330 0.0 0.0 0.00 0.00 0.00 93 1017.2
20260904051534 73 330 0.0 0.0 0.00 0.00 0.00 92 1017.2
20260904051033 73 330 0.0 0.0 0.00 0.00 0.00 92 1017.2
20260904050529 73 330 0.0 0.0 0.00 0.00 0.00 92 1017.2
20260904050025 74 330 0.0 0.0 0.00 0.00 0.00 90 1017.2
20260904045520 75 330 0.0 0.0 0.00 0.00 0.00 90 1017.2
20260904045015 75 330 0.0 0.0 0.00 0.00 0.00 90 1017.2
20260904044511 75 330 0.0 0.0 0.00 0.00 0.00 91 1017.5
20260904044007 75 330 0.0 0.0 0.00 0.00 0.00 90 1017.5
20260904043503 74 330 0.0 0.0 0.00 0.00 0.00 90 1017.5
20260904042958 74 330 0.0 0.0 0.00 0.00 0.00 90 1017.5